Location: Les Martinières
(47.2667°N, 1.4410°E)
Time: 03:17:41
(UTC+00:00)

GEOS 3 Rocket - Pass Details

Date: 15 May 2026
Orbit: 767 x 846 km, 115.0° (Epoch: 8 June)

Event Time Altitude Azimuth Distance (km) Brightness Sun altitude
Exits shadow 20:22:54 - 158° (SSE) 2,604 5.7 -9.0°
Reaches altitude 10° 20:23:22 10° 159° (SSE) 2,422 5.5 -9.0°
Maximum altitude 20:28:31 53° 236° (SW) 1,019 4.2 -9.7°
Drops below altitude 10° 20:33:47 10° 313° (NW) 2,470 7.8 -10.3°
Sets 20:36:12 0° 318° (NW) 3,413 9.1 -10.6°
